Time,TemperatureF,DewpointF,PressureIn,WindDirection,WindDirectionDegrees,WindSpeedMPH,WindSpeedGustMPH,Humidity,HourlyPrecipIn,Conditions,Clouds,dailyrainin,SolarRadiationWatts/m^2,SoftwareType,DateUTC
2013-05-25 00:01:00,42.0,40.0,-100.00,ESE,110,0.0,0.0,93,0.00,,,0.34,0.000000,,2013-05-25 07:01:00,
2013-05-25 00:11:00,42.0,40.0,-100.00,ESE,105,0.0,0.0,93,0.00,,,0.33,0.000000,,2013-05-25 07:11:00,
2013-05-25 00:32:00,42.0,40.0,-100.00,ESE,105,0.0,0.0,93,0.00,,,0.33,0.000000,,2013-05-25 07:32:00,
2013-05-25 00:42:00,42.0,40.0,-100.00,ESE,105,0.0,0.0,93,0.00,,,0.33,0.000000,,2013-05-25 07:42:00,
2013-05-25 00:52:00,42.0,40.0,-100.00,ESE,105,0.0,0.0,93,0.00,,,0.33,0.000000,,2013-05-25 07:52:00,
2013-05-25 01:02:00,42.0,40.0,-100.00,ESE,105,0.0,0.0,93,0.00,,,0.33,0.000000,,2013-05-25 08:02:00,
2013-05-25 01:11:00,42.0,40.0,-100.00,South,180,0.0,0.0,93,0.00,,,0.31,0.000000,,2013-05-25 08:11:00,
2013-05-25 01:32:00,42.0,40.0,-100.00,South,180,0.0,0.0,93,0.00,,,0.31,0.000000,,2013-05-25 08:32:00,
2013-05-25 01:42:00,42.0,40.0,-100.00,South,180,0.0,0.0,93,0.00,,,0.31,0.000000,,2013-05-25 08:42:00,
2013-05-25 01:52:00,42.0,40.0,-100.00,South,180,0.0,0.0,93,0.00,,,0.31,0.000000,,2013-05-25 08:52:00,
2013-05-25 02:01:00,42.0,40.0,-100.00,South,180,0.0,0.0,93,0.00,,,0.31,0.000000,,2013-05-25 09:01:00,
2013-05-25 02:11:00,41.0,39.0,-100.00,ESE,113,0.0,5.0,94,0.01,,,0.32,0.000000,,2013-05-25 09:11:00,
2013-05-25 02:33:00,41.0,39.0,-100.00,ESE,113,0.0,5.0,94,0.01,,,0.32,0.000000,,2013-05-25 09:33:00,
2013-05-25 02:43:00,41.0,39.0,-100.00,ESE,113,0.0,5.0,94,0.01,,,0.32,0.000000,,2013-05-25 09:43:00,
2013-05-25 02:53:00,41.0,39.0,-100.00,ESE,113,0.0,5.0,94,0.01,,,0.32,0.000000,,2013-05-25 09:53:00,
2013-05-25 03:02:00,41.0,39.0,-100.00,ESE,113,0.0,5.0,94,0.01,,,0.32,0.000000,,2013-05-25 10:02:00,
2013-05-25 03:11:00,42.0,41.0,-100.00,NNE,22,0.0,0.0,96,0.00,,,0.31,0.000000,,2013-05-25 10:11:00,
2013-05-25 03:33:00,42.0,41.0,-100.00,NNE,22,0.0,0.0,96,0.00,,,0.31,0.000000,,2013-05-25 10:33:00,
2013-05-25 03:42:00,42.0,41.0,-100.00,NNE,22,0.0,0.0,96,0.00,,,0.31,0.000000,,2013-05-25 10:42:00,
2013-05-25 03:52:00,42.0,41.0,-100.00,NNE,22,0.0,0.0,96,0.00,,,0.31,0.000000,,2013-05-25 10:52:00,
2013-05-25 04:02:00,42.0,41.0,-100.00,NNE,22,0.0,0.0,96,0.00,,,0.31,0.000000,,2013-05-25 11:02:00,
2013-05-25 04:11:00,42.0,41.0,-100.00,WSW,258,0.0,0.0,96,0.00,,,0.30,0.000000,,2013-05-25 11:11:00,
2013-05-25 04:32:00,42.0,41.0,-100.00,WSW,258,0.0,0.0,96,0.00,,,0.30,0.000000,,2013-05-25 11:32:00,
2013-05-25 04:42:00,42.0,41.0,-100.00,WSW,258,0.0,0.0,96,0.00,,,0.30,0.000000,,2013-05-25 11:42:00,
2013-05-25 04:52:00,42.0,41.0,-100.00,WSW,258,0.0,0.0,96,0.00,,,0.30,0.000000,,2013-05-25 11:52:00,
2013-05-25 05:01:00,42.0,41.0,-100.00,WSW,258,0.0,0.0,96,0.00,,,0.30,0.000000,,2013-05-25 12:01:00,
2013-05-25 05:11:00,40.0,39.0,-100.00,NW,314,0.0,0.0,96,0.00,,,0.26,0.000000,,2013-05-25 12:11:00,
2013-05-25 05:32:00,40.0,39.0,-100.00,NW,314,0.0,0.0,96,0.00,,,0.26,0.000000,,2013-05-25 12:32:00,
2013-05-25 05:42:00,40.0,39.0,-100.00,NW,314,0.0,0.0,96,0.00,,,0.26,0.000000,,2013-05-25 12:42:00,
2013-05-25 05:52:00,40.0,39.0,-100.00,NW,314,0.0,0.0,96,0.00,,,0.26,0.000000,,2013-05-25 12:52:00,
2013-05-25 06:02:00,40.0,39.0,-100.00,NW,314,0.0,0.0,96,0.00,,,0.26,0.000000,,2013-05-25 13:02:00,
2013-05-25 06:11:00,42.0,41.0,-100.00,SSE,147,0.0,0.0,96,0.00,,,0.19,3.000000,,2013-05-25 13:11:00,
2013-05-25 06:32:00,42.0,41.0,-100.00,SSE,147,0.0,0.0,96,0.00,,,0.19,3.000000,,2013-05-25 13:32:00,
2013-05-25 06:42:00,42.0,41.0,-100.00,SSE,147,0.0,0.0,96,0.00,,,0.19,3.000000,,2013-05-25 13:42:00,
2013-05-25 06:52:00,42.0,41.0,-100.00,SSE,147,0.0,0.0,96,0.00,,,0.19,3.000000,,2013-05-25 13:52:00,
2013-05-25 07:02:00,42.0,41.0,-100.00,SSE,147,0.0,0.0,96,0.00,,,0.19,3.000000,,2013-05-25 14:02:00,
2013-05-25 07:11:00,43.0,42.0,-100.00,East,90,0.0,0.0,96,0.00,,,0.17,23.000000,,2013-05-25 14:11:00,
2013-05-25 07:32:00,43.0,42.0,-100.00,East,90,0.0,0.0,96,0.00,,,0.17,23.000000,,2013-05-25 14:32:00,
2013-05-25 07:42:00,43.0,42.0,-100.00,East,90,0.0,0.0,96,0.00,,,0.17,23.000000,,2013-05-25 14:42:00,
2013-05-25 07:52:00,43.0,42.0,-100.00,East,90,0.0,0.0,96,0.00,,,0.17,23.000000,,2013-05-25 14:52:00,
2013-05-25 08:01:00,43.0,42.0,-100.00,East,90,0.0,0.0,96,0.00,,,0.17,23.000000,,2013-05-25 15:01:00,
2013-05-25 08:11:00,43.0,41.0,-100.00,East,94,0.0,0.0,94,0.00,,,0.17,73.000000,,2013-05-25 15:11:00,
2013-05-25 08:33:00,43.0,41.0,-100.00,East,94,0.0,0.0,94,0.00,,,0.17,73.000000,,2013-05-25 15:33:00,
2013-05-25 08:43:00,43.0,41.0,-100.00,East,94,0.0,0.0,94,0.00,,,0.17,73.000000,,2013-05-25 15:43:00,
2013-05-25 08:53:00,43.0,41.0,-100.00,East,94,0.0,0.0,94,0.00,,,0.17,73.000000,,2013-05-25 15:53:00,
2013-05-25 09:03:00,43.0,41.0,-100.00,East,94,0.0,0.0,94,0.00,,,0.17,73.000000,,2013-05-25 16:03:00,
2013-05-25 09:11:00,48.0,43.0,-100.00,SE,126,0.0,4.0,84,0.00,,,0.17,152.000000,,2013-05-25 16:11:00,
2013-05-25 09:33:00,48.0,43.0,-100.00,SE,126,0.0,4.0,84,0.00,,,0.17,152.000000,,2013-05-25 16:33:00,
2013-05-25 09:42:00,48.0,43.0,-100.00,SE,126,0.0,4.0,84,0.00,,,0.17,152.000000,,2013-05-25 16:42:00,
2013-05-25 09:52:00,48.0,43.0,-100.00,SE,126,0.0,4.0,84,0.00,,,0.17,152.000000,,2013-05-25 16:52:00,
2013-05-25 10:02:00,48.0,43.0,-100.00,SE,126,0.0,4.0,84,0.00,,,0.17,152.000000,,2013-05-25 17:02:00,
2013-05-25 10:33:00,56.0,44.0,-100.00,SE,142,0.0,7.0,64,0.00,,,0.17,617.000000,,2013-05-25 17:33:00,
2013-05-25 11:32:00,56.0,41.0,-100.00,SSE,162,2.0,7.0,58,-99.99,,,0.17,554.000000,,2013-05-25 18:32:00,
2013-05-25 12:11:00,52.0,39.0,-100.00,South,190,0.0,5.0,61,0.00,,,0.17,319.000000,,2013-05-25 19:11:00,
2013-05-25 12:32:00,52.0,39.0,-100.00,South,190,0.0,5.0,61,0.00,,,0.17,319.000000,,2013-05-25 19:32:00,
2013-05-25 12:42:00,52.0,39.0,-100.00,South,190,0.0,5.0,61,0.00,,,0.17,319.000000,,2013-05-25 19:42:00,
2013-05-25 12:52:00,52.0,39.0,-100.00,South,190,0.0,5.0,61,0.00,,,0.17,319.000000,,2013-05-25 19:52:00,
2013-05-25 13:02:00,52.0,39.0,-100.00,South,190,0.0,5.0,61,0.00,,,0.17,319.000000,,2013-05-25 20:02:00,
2013-05-25 13:11:00,52.0,40.0,-100.00,SSW,196,0.0,3.0,64,0.00,,,0.12,263.000000,,2013-05-25 20:11:00,
2013-05-25 13:32:00,52.0,40.0,-100.00,SSW,196,0.0,3.0,64,0.00,,,0.12,263.000000,,2013-05-25 20:32:00,
2013-05-25 13:42:00,52.0,40.0,-100.00,SSW,196,0.0,3.0,64,0.00,,,0.12,263.000000,,2013-05-25 20:42:00,
2013-05-25 13:52:00,52.0,40.0,-100.00,SSW,196,0.0,3.0,64,0.00,,,0.12,263.000000,,2013-05-25 20:52:00,
2013-05-25 14:01:00,52.0,40.0,-100.00,SSW,196,0.0,3.0,64,0.00,,,0.12,263.000000,,2013-05-25 21:01:00,
2013-05-25 14:11:00,57.0,41.0,-100.00,South,171,0.0,4.0,54,0.00,,,0.03,357.000000,,2013-05-25 21:11:00,
2013-05-25 14:33:00,57.0,41.0,-100.00,South,171,0.0,4.0,54,0.00,,,0.03,357.000000,,2013-05-25 21:33:00,
2013-05-25 14:43:00,57.0,41.0,-100.00,South,171,0.0,4.0,54,0.00,,,0.03,357.000000,,2013-05-25 21:43:00,
2013-05-25 14:53:00,57.0,41.0,-100.00,South,171,0.0,4.0,54,0.00,,,0.03,357.000000,,2013-05-25 21:53:00,
2013-05-25 15:02:00,57.0,41.0,-100.00,South,171,0.0,4.0,54,0.00,,,0.03,357.000000,,2013-05-25 22:02:00,
2013-05-25 15:11:00,57.0,41.0,-100.00,South,181,0.0,4.0,56,0.00,,,0.03,356.000000,,2013-05-25 22:11:00,
2013-05-25 15:33:00,57.0,41.0,-100.00,South,181,0.0,4.0,56,0.00,,,0.03,356.000000,,2013-05-25 22:33:00,
2013-05-25 15:42:00,57.0,41.0,-100.00,South,181,0.0,4.0,56,0.00,,,0.03,356.000000,,2013-05-25 22:42:00,
2013-05-25 15:52:00,57.0,41.0,-100.00,South,181,0.0,4.0,56,0.00,,,0.03,356.000000,,2013-05-25 22:52:00,
2013-05-25 16:02:00,57.0,41.0,-100.00,South,181,0.0,4.0,56,0.00,,,0.03,356.000000,,2013-05-25 23:02:00,
2013-05-25 16:11:00,55.0,38.0,-100.00,SW,228,0.0,3.0,52,0.00,,,0.03,234.000000,,2013-05-25 23:11:00,
2013-05-25 16:32:00,55.0,38.0,-100.00,SW,228,0.0,3.0,52,0.00,,,0.03,234.000000,,2013-05-25 23:32:00,
2013-05-25 16:42:00,55.0,38.0,-100.00,SW,228,0.0,3.0,52,0.00,,,0.03,234.000000,,2013-05-25 23:42:00,
2013-05-25 16:52:00,55.0,38.0,-100.00,SW,228,0.0,3.0,52,0.00,,,0.03,234.000000,,2013-05-25 23:52:00,
2013-05-25 17:01:00,55.0,38.0,-100.00,SW,228,0.0,3.0,52,0.00,,,0.03,234.000000,,2013-05-26 00:01:00,
2013-05-25 18:11:00,55.0,44.0,-100.00,South,178,0.0,4.0,66,-99.99,,,0.02,163.000000,,2013-05-26 01:11:00,
2013-05-25 18:32:00,55.0,44.0,-100.00,South,178,0.0,4.0,66,-99.99,,,0.02,163.000000,,2013-05-26 01:32:00,
2013-05-25 18:42:00,55.0,44.0,-100.00,South,178,0.0,4.0,66,-99.99,,,0.02,163.000000,,2013-05-26 01:42:00,
2013-05-25 18:52:00,55.0,44.0,-100.00,South,178,0.0,4.0,66,-99.99,,,0.02,163.000000,,2013-05-26 01:52:00,
2013-05-25 19:02:00,55.0,44.0,-100.00,South,178,0.0,4.0,66,-99.99,,,0.02,163.000000,,2013-05-26 02:02:00,
2013-05-25 19:11:00,51.0,41.0,-100.00,NW,304,0.0,3.0,69,0.00,,,0.01,65.000000,,2013-05-26 02:11:00,
2013-05-25 19:32:00,51.0,41.0,-100.00,NW,304,0.0,3.0,69,0.00,,,0.01,65.000000,,2013-05-26 02:32:00,
2013-05-25 19:42:00,51.0,41.0,-100.00,NW,304,0.0,3.0,69,0.00,,,0.01,65.000000,,2013-05-26 02:42:00,
2013-05-25 19:52:00,51.0,41.0,-100.00,NW,304,0.0,3.0,69,0.00,,,0.01,65.000000,,2013-05-26 02:52:00,
2013-05-25 20:01:00,51.0,41.0,-100.00,NW,304,0.0,3.0,69,0.00,,,0.01,65.000000,,2013-05-26 03:01:00,
2013-05-25 20:11:00,51.0,42.0,-100.00,ESE,106,0.0,3.0,71,0.00,,,0.01,45.000000,,2013-05-26 03:11:00,
2013-05-25 20:33:00,51.0,42.0,-100.00,ESE,106,0.0,3.0,71,0.00,,,0.01,45.000000,,2013-05-26 03:33:00,
2013-05-25 20:43:00,51.0,42.0,-100.00,ESE,106,0.0,3.0,71,0.00,,,0.01,45.000000,,2013-05-26 03:43:00,
2013-05-25 20:53:00,51.0,42.0,-100.00,ESE,106,0.0,3.0,71,0.00,,,0.01,45.000000,,2013-05-26 03:53:00,
2013-05-25 21:02:00,51.0,42.0,-100.00,ESE,106,0.0,3.0,71,0.00,,,0.01,45.000000,,2013-05-26 04:02:00,
2013-05-25 21:11:00,49.0,41.0,-100.00,SSE,156,0.0,0.0,74,0.00,,,0.01,6.000000,,2013-05-26 04:11:00,
2013-05-25 21:33:00,49.0,41.0,-100.00,SSE,156,0.0,0.0,74,0.00,,,0.01,6.000000,,2013-05-26 04:33:00,
2013-05-25 21:42:00,49.0,41.0,-100.00,SSE,156,0.0,0.0,74,0.00,,,0.01,6.000000,,2013-05-26 04:42:00,
2013-05-25 21:52:00,49.0,41.0,-100.00,SSE,156,0.0,0.0,74,0.00,,,0.01,6.000000,,2013-05-26 04:52:00,
2013-05-25 22:02:00,49.0,41.0,-100.00,SSE,156,0.0,0.0,74,0.00,,,0.01,6.000000,,2013-05-26 05:02:00,
2013-05-25 22:11:00,48.0,41.0,-100.00,East,80,0.0,0.0,78,0.00,,,0.01,0.000000,,2013-05-26 05:11:00,
2013-05-25 22:32:00,48.0,41.0,-100.00,East,80,0.0,0.0,78,0.00,,,0.01,0.000000,,2013-05-26 05:32:00,
2013-05-25 22:42:00,48.0,41.0,-100.00,East,80,0.0,0.0,78,0.00,,,0.01,0.000000,,2013-05-26 05:42:00,
2013-05-25 22:52:00,48.0,41.0,-100.00,East,80,0.0,0.0,78,0.00,,,0.01,0.000000,,2013-05-26 05:52:00,
2013-05-25 23:01:00,48.0,41.0,-100.00,East,80,0.0,0.0,78,0.00,,,0.01,0.000000,,2013-05-26 06:01:00,
2013-05-25 23:11:00,47.0,42.0,-100.00,ENE,75,0.0,5.0,84,0.00,,,0.01,0.000000,,2013-05-26 06:11:00,
2013-05-25 23:32:00,47.0,42.0,-100.00,ENE,75,0.0,5.0,84,0.00,,,0.01,0.000000,,2013-05-26 06:32:00,
2013-05-25 23:42:00,47.0,42.0,-100.00,ENE,75,0.0,5.0,84,0.00,,,0.01,0.000000,,2013-05-26 06:42:00,
2013-05-25 23:52:00,47.0,42.0,-100.00,ENE,75,0.0,5.0,84,0.00,,,0.01,0.000000,,2013-05-26 06:52:00,